Weather History for Avalon, CA

Change the Weather History Date:

Friday, March 15, 2013

  Actual Average Record
Temperature  
Mean Temperature 70 °F -  
Max Temperature 78 °F 60 °F 80 °F (2014)
Min Temperature 62 °F 48 °F 43 °F (2008)
Cooling Degree Days 5    
Growing Degree Days 20 (Base 50)    
Moisture  
Dew Point 31 °F    
Average Humidity 25    
Maximum Humidity 46    
Minimum Humidity 14    
Precipitation  
Precipitation 0.00 in - - ()
Sea Level Pressure  
Sea Level Pressure 29.95 in    
Wind  
Wind Speed 6 mph (West)    
Max Wind Speed 9 mph    
Max Gust Speed -    
Visibility 10 miles    
Events      
Averages and records for this station are not official NWS values.
T = Trace of Precipitation, MM = Missing Value Source: NWS Daily Summary

Daily Weather History Graph

Daily Weather History Graph

Search for Another Location

Airport:

Trip Planner

Search our weather history database for the weather conditions in past years. The results will help you decide how hot, cold, wet, or windy it might be!

Date:

Astronomy

Mar. 15, 2013 Rise Set
Actual Time 7:03 AM PDT 7:01 PM PDT
Civil Twilight 6:38 AM PDT 7:26 PM PDT
Nautical Twilight 6:10 AM PDT 7:55 PM PDT
Astronomical Twilight 5:41 AM PDT 8:24 PM PDT
Moon 9:10 AM PDT (3/15) 11:05 PM PDT (3/15)
Length of Visible Light 12h 47m
Length of Day
11h 58m
Waxing Crescent, 16% of the Moon is Illuminated
Mar 15
Waxing Crescent
Mar 19
First Quarter
Mar 27
Full
Apr 2
Last Quarter
Apr 10
New

Hourly Weather History & Observations

Time (PDT) Temp. Dew Point Humidity Pressure Visibility Wind Dir Wind Speed Gust Speed Precip Events Conditions
12:51 AM 69.1 °F 28.9 °F 22% 29.99 in 10.0 mi WNW 6.9 mph - N/A   Clear
1:51 AM 70.0 °F 28.0 °F 21% 29.99 in 10.0 mi WNW 6.9 mph - N/A   Clear
2:51 AM 69.1 °F 25.0 °F 19% 29.97 in 10.0 mi WNW 5.8 mph - N/A   Clear
3:51 AM 68.0 °F 24.1 °F 19% 29.95 in 10.0 mi West 8.1 mph - N/A   Clear
4:51 AM 66.0 °F 24.1 °F 20% 29.96 in 10.0 mi West 5.8 mph - N/A   Clear
5:51 AM 70.0 °F 21.0 °F 16% 29.96 in 10.0 mi West 9.2 mph - N/A   Clear
6:51 AM 66.0 °F 26.1 °F 22% 29.98 in 10.0 mi West 9.2 mph - N/A   Clear
7:51 AM 70.0 °F 24.1 °F 18% 29.97 in 10.0 mi West 8.1 mph - N/A   Clear
8:51 AM 72.0 °F 23.0 °F 16% 29.97 in 10.0 mi WSW 6.9 mph - N/A   Clear
9:51 AM 75.0 °F 21.9 °F 14% 29.97 in 10.0 mi West 3.5 mph - N/A   Clear
10:51 AM 75.0 °F 23.0 °F 14% 29.99 in 10.0 mi West 3.5 mph - N/A   Clear
11:51 AM 77.0 °F 37.0 °F 24% 29.97 in 10.0 mi Variable 3.5 mph - N/A   Clear
12:51 PM 78.1 °F 25.0 °F 14% 29.96 in 10.0 mi West 4.6 mph - N/A   Clear
1:51 PM 77.0 °F 30.0 °F 18% 29.94 in 10.0 mi WSW 6.9 mph - N/A   Clear
2:51 PM 75.9 °F 35.1 °F 23% 29.94 in 10.0 mi West 9.2 mph - N/A   Clear
3:51 PM 72.0 °F 39.9 °F 31% 29.93 in 10.0 mi WSW 6.9 mph - N/A   Clear
4:51 PM 72.0 °F 39.0 °F 30% 29.93 in 10.0 mi WSW 5.8 mph - N/A   Clear
5:51 PM 72.0 °F 33.1 °F 24% 29.91 in 10.0 mi WSW 6.9 mph - N/A   Clear
6:51 PM 69.1 °F 37.9 °F 32% 29.92 in 10.0 mi WSW 4.6 mph - N/A   Clear
7:51 PM 63.0 °F 37.0 °F 38% 29.94 in 10.0 mi West 6.9 mph - N/A   Clear
8:51 PM 62.1 °F 41.0 °F 46% 29.94 in 10.0 mi West 6.9 mph - N/A   Clear
9:51 PM 64.9 °F 42.1 °F 43% 29.93 in 10.0 mi Calm Calm - N/A   Clear
10:51 PM 64.0 °F 42.1 °F 45% 29.93 in 10.0 mi Calm Calm - N/A   Clear
11:51 PM 64.9 °F 41.0 °F 42% 29.90 in 10.0 mi Calm Calm - N/A   Clear